Precipitable_Water
0.83 0.81 0.79 0.79 0.79 0.78 0.77 0.74 0.72 0.66 0.60 0.56 0.53 0.52 0.51 0.49 0.43 0.40 0.27 0.31 0.36 0.50 0.86 0.90 1.17 1.38 1.43 1.32 1.44 1.39 1.20 1.00 0.86 0.96 0.96 1.06 0.95 1.17 1.28 1.16 1.28 1.35 1.36 1.50 1.68
0.72 0.71 0.70 0.71 0.72 0.73 0.73 0.73 0.74 0.72 0.68 0.63 0.57 0.53 0.50 0.49 0.37 0.29 0.34 0.39 0.36 0.44 0.70 0.88 0.98 1.21 1.15 1.14 1.26 1.13 1.22 1.08 0.98 0.91 1.09 1.06 0.99 0.94 1.03 1.02 1.09 1.23 1.42 1.55 1.61
0.62 0.61 0.60 0.60 0.60 0.61 0.64 0.68 0.71 0.70 0.72 0.70 0.66 0.58 0.51 0.47 0.30 0.25 0.39 0.37 0.35 0.49 0.52 0.92 1.07 1.12 0.98 1.07 1.15 1.14 1.17 1.23 0.93 0.92 1.12 1.00 1.05 0.98 0.97 0.95 1.03 1.06 1.19 1.36 1.44
0.58 0.57 0.55 0.55 0.56 0.58 0.57 0.57 0.61 0.67 0.72 0.72 0.71 0.67 0.59 0.43 0.18 0.48 0.44 0.44 0.39 0.46 0.41 0.75 0.91 0.92 0.83 0.91 1.10 0.96 1.14 1.18 0.99 0.91 0.92 0.97 1.09 1.03 1.00 0.92 1.16 1.15 1.22 1.29 1.31
0.51 0.50 0.49 0.50 0.51 0.53 0.53 0.54 0.54 0.62 0.69 0.74 0.76 0.72 0.60 0.35 0.22 0.45 0.44 0.59 0.46 0.44 0.34 0.58 0.73 0.86 0.74 0.89 0.99 0.94 1.04 1.07 1.07 0.95 0.87 0.97 1.04 1.23 1.06 1.02 0.99 1.08 1.16 1.21 1.29
0.43 0.44 0.46 0.46 0.47 0.48 0.49 0.49 0.51 0.58 0.70 0.84 0.86 0.78 0.56 0.32 0.40 0.31 0.39 0.47 0.41 0.46 0.33 0.51 0.62 0.86 0.81 0.82 0.88 0.97 0.98 0.99 0.97 0.90 0.83 0.73 0.95 1.03 1.14 1.15 1.12 0.96 1.03 1.13 1.23
0.39 0.38 0.38 0.38 0.42 0.43 0.45 0.44 0.50 0.65 0.76 0.83 0.91 0.77 0.56 0.45 0.44 0.29 0.44 0.45 0.51 0.47 0.35 0.47 0.57 0.76 0.81 0.71 0.86 0.94 0.74 0.88 0.90 0.79 0.68 0.70 0.76 0.88 1.15 1.24 1.16 1.12 0.99 1.03 1.15
0.39 0.38 0.37 0.35 0.34 0.35 0.38 0.41 0.55 0.67 0.68 0.76 0.86 0.78 0.53 0.64 0.63 0.35 0.45 0.50 0.61 0.62 0.51 0.50 0.57 0.68 0.77 0.77 0.63 0.72 0.75 0.57 0.66 0.70 0.67 0.65 0.60 0.81 1.06 1.18 1.18 1.18 1.14 1.03 1.01
0.41 0.38 0.35 0.34 0.33 0.32 0.31 0.36 0.56 0.63 0.67 0.72 0.71 0.70 0.53 0.64 0.52 0.53 0.42 0.52 0.64 0.69 0.70 0.62 0.62 0.61 0.70 0.57 0.43 0.45 0.46 0.53 0.56 0.66 0.64 0.61 0.62 0.84 1.00 1.09 1.13 1.19 1.18 1.16 1.03
0.40 0.38 0.35 0.33 0.31 0.30 0.30 0.38 0.53 0.64 0.72 0.74 0.72 0.57 0.59 0.50 0.51 0.48 0.46 0.56 0.67 0.68 0.62 0.58 0.55 0.43 0.53 0.53 0.29 0.33 0.36 0.48 0.53 0.65 0.62 0.58 0.60 0.83 0.91 1.06 1.08 1.17 1.18 1.18 1.14
0.39 0.37 0.34 0.32 0.31 0.33 0.37 0.34 0.34 0.49 0.55 0.40 0.53 0.47 0.53 0.57 0.56 0.43 0.56 0.54 0.68 0.60 0.43 0.50 0.39 0.34 0.31 0.48 0.45 0.43 0.39 0.41 0.55 0.64 0.62 0.60 0.64 0.69 0.85 0.97 1.01 1.14 1.18 1.15 1.18
0.39 0.36 0.34 0.31 0.34 0.38 0.37 0.28 0.32 0.35 0.21 0.25 0.22 0.31 0.49 0.58 0.51 0.43 0.49 0.39 0.53 0.42 0.39 0.36 0.28 0.30 0.29 0.29 0.38 0.39 0.37 0.39 0.49 0.59 0.63 0.61 0.60 0.68 0.75 0.87 0.97 1.10 1.15 1.21 1.21
0.38 0.35 0.31 0.29 0.37 0.33 0.35 0.30 0.36 0.40 0.23 0.19 0.20 0.20 0.24 0.47 0.47 0.50 0.39 0.42 0.43 0.45 0.31 0.22 0.24 0.27 0.22 0.21 0.23 0.25 0.30 0.35 0.38 0.50 0.56 0.57 0.54 0.61 0.68 0.78 0.96 1.08 1.22 1.23 1.20
0.40 0.35 0.31 0.29 0.28 0.28 0.27 0.29 0.35 0.40 0.17 0.15 0.20 0.24 0.25 0.31 0.35 0.53 0.41 0.40 0.42 0.40 0.41 0.29 0.30 0.26 0.22 0.20 0.20 0.16 0.24 0.33 0.35 0.38 0.38 0.52 0.41 0.52 0.60 0.61 0.86 0.95 1.13 1.13 1.17
0.40 0.35 0.32 0.40 0.31 0.29 0.25 0.26 0.31 0.35 0.09 0.23 0.25 0.35 0.31 0.23 0.30 0.36 0.52 0.36 0.33 0.35 0.38 0.29 0.27 0.25 0.21 0.20 0.22 0.18 0.24 0.22 0.29 0.33 0.36 0.38 0.42 0.47 0.56 0.52 0.64 0.84 1.01 1.08 1.19
0.39 0.36 0.35 0.33 0.33 0.29 0.28 0.25 0.29 0.17 0.09 0.23 0.27 0.26 0.25 0.27 0.29 0.40 0.41 0.39 0.43 0.35 0.34 0.34 0.32 0.28 0.26 0.26 0.24 0.24 0.21 0.21 0.21 0.23 0.22 0.29 0.31 0.35 0.43 0.52 0.61 0.73 0.86 0.99 1.08
0.40 0.39 0.37 0.37 0.25 0.28 0.28 0.24 0.15 0.10 0.19 0.31 0.31 0.33 0.28 0.27 0.28 0.34 0.35 0.31 0.30 0.26 0.25 0.29 0.29 0.29 0.28 0.26 0.26 0.25 0.20 0.15 0.13 0.13 0.14 0.26 0.26 0.30 0.43 0.48 0.56 0.63 0.75 0.87 1.00
0.41 0.44 0.45 0.37 0.31 0.29 0.27 0.19 0.12 0.16 0.29 0.38 0.36 0.33 0.28 0.32 0.29 0.31 0.33 0.32 0.32 0.32 0.29 0.26 0.22 0.27 0.30 0.26 0.25 0.23 0.19 0.14 0.11 0.11 0.13 0.19 0.19 0.24 0.40 0.49 0.53 0.66 0.70 0.82 0.93
0.48 0.41 0.39 0.31 0.32 0.29 0.24 0.15 0.16 0.27 0.36 0.32 0.31 0.29 0.26 0.32 0.35 0.31 0.30 0.31 0.35 0.32 0.27 0.30 0.27 0.35 0.32 0.31 0.30 0.27 0.18 0.20 0.18 0.19 0.15 0.15 0.19 0.24 0.33 0.38 0.47 0.56 0.64 0.75 0.90
0.48 0.40 0.38 0.33 0.34 0.32 0.24 0.18 0.24 0.33 0.30 0.29 0.25 0.33 0.36 0.40 0.35 0.34 0.30 0.34 0.37 0.40 0.45 0.40 0.33 0.37 0.34 0.34 0.31 0.30 0.27 0.19 0.19 0.16 0.15 0.17 0.19 0.20 0.26 0.31 0.39 0.47 0.57 0.64 0.77
0.50 0.34 0.41 0.35 0.37 0.28 0.18 0.21 0.24 0.25 0.23 0.24 0.23 0.29 0.40 0.44 0.45 0.40 0.37 0.43 0.45 0.44 0.46 0.45 0.40 0.39 0.38 0.28 0.26 0.25 0.27 0.24 0.21 0.18 0.17 0.19 0.19 0.23 0.27 0.32 0.35 0.45 0.51 0.59 0.65
0.48 0.33 0.44 0.38 0.27 0.25 0.21 0.25 0.26 0.24 0.25 0.27 0.28 0.29 0.35 0.41 0.45 0.45 0.48 0.53 0.47 0.49 0.42 0.47 0.45 0.38 0.32 0.34 0.36 0.31 0.27 0.29 0.19 0.18 0.18 0.22 0.25 0.29 0.28 0.29 0.35 0.41 0.50 0.56 0.66
0.48 0.41 0.46 0.39 0.24 0.23 0.27 0.25 0.32 0.28 0.27 0.27 0.25 0.38 0.45 0.42 0.42 0.54 0.54 0.58 0.50 0.50 0.51 0.52 0.43 0.36 0.38 0.37 0.36 0.30 0.29 0.29 0.28 0.25 0.23 0.19 0.24 0.36 0.34 0.29 0.34 0.38 0.48 0.59 0.70
0.54 0.38 0.37 0.38 0.34 0.28 0.26 0.25 0.26 0.37 0.30 0.28 0.31 0.33 0.32 0.35 0.43 0.45 0.51 0.54 0.52 0.48 0.53 0.57 0.47 0.40 0.34 0.33 0.35 0.30 0.30 0.29 0.29 0.24 0.24 0.25 0.25 0.32 0.33 0.33 0.37 0.44 0.49 0.57 0.67
0.58 0.45 0.46 0.32 0.31 0.30 0.30 0.29 0.28 0.30 0.31 0.30 0.31 0.34 0.31 0.28 0.39 0.46 0.51 0.49 0.50 0.51 0.52 0.51 0.43 0.46 0.47 0.50 0.44 0.37 0.33 0.31 0.27 0.29 0.24 0.29 0.31 0.36 0.37 0.35 0.36 0.41 0.50 0.55 0.61
0.57 0.50 0.51 0.43 0.38 0.33 0.31 0.31 0.29 0.28 0.27 0.25 0.26 0.31 0.33 0.30 0.33 0.38 0.46 0.46 0.47 0.51 0.47 0.49 0.39 0.47 0.46 0.49 0.48 0.40 0.40 0.35 0.33 0.32 0.31 0.32 0.33 0.42 0.44 0.40 0.39 0.40 0.43 0.48 0.50
0.73 0.70 0.58 0.45 0.40 0.34 0.31 0.29 0.26 0.29 0.29 0.36 0.34 0.28 0.27 0.34 0.40 0.39 0.46 0.47 0.47 0.44 0.42 0.43 0.40 0.43 0.39 0.49 0.47 0.37 0.38 0.39 0.38 0.37 0.35 0.31 0.38 0.45 0.44 0.46 0.45 0.44 0.43 0.41 0.45
Wind_Speed
17 17 17 18 17 17 17 17 16 16 15 14 14 13 13 13 14 13 14 12 14 16 16 17 19 17 16 15 13 7 5 3 5 4 6 6 7 4 6 9 7 3 13 17 20
18 18 18 19 19 19 19 19 18 17 17 16 14 14 13 13 14 17 16 16 16 18 19 21 21 19 17 16 14 12 2 5 4 4 6 6 7 6 8 8 7 10 15 18 20
19 19 19 20 20 20 20 20 20 19 18 17 16 14 13 12 13 14 13 20 18 20 21 22 21 21 20 16 17 14 8 8 5 3 3 8 8 7 8 8 9 12 16 19 19
20 21 21 21 21 21 21 21 21 20 19 18 17 15 14 12 9 6 9 15 20 22 23 24 24 23 21 20 18 16 12 8 6 5 4 6 9 7 4 8 10 12 16 18 19
21 22 22 23 23 23 23 22 22 21 21 20 18 16 15 15 17 12 10 12 18 24 25 26 27 25 23 20 17 18 13 13 9 8 7 4 7 6 6 8 10 12 15 17 18
23 24 24 24 24 25 24 23 23 22 20 19 19 17 17 19 14 16 14 14 16 24 26 27 27 27 23 21 21 17 19 14 14 12 10 9 8 9 9 9 10 11 15 17 18
25 26 26 27 26 26 26 24 23 21 20 19 19 19 20 20 14 15 18 18 17 21 25 27 26 26 24 22 20 22 14 20 18 15 12 12 12 13 11 11 11 11 12 16 18
28 28 29 29 29 29 26 25 23 22 20 18 17 19 20 16 22 18 18 20 19 21 22 24 27 27 27 20 17 23 22 21 22 20 17 14 15 15 14 13 13 13 13 14 17
30 30 31 31 31 30 28 26 24 21 19 17 17 20 20 18 22 23 21 22 22 21 22 22 26 26 30 25 22 23 22 25 22 24 19 18 14 15 16 15 14 14 15 14 15
31 32 32 32 32 30 29 28 25 23 21 21 22 20 22 18 20 24 24 24 24 22 22 23 25 27 29 29 26 25 26 24 24 22 22 20 19 12 15 16 15 16 16 16 16
33 33 33 33 31 30 28 26 24 24 25 26 21 25 18 19 18 23 26 25 26 25 24 26 26 30 32 32 29 26 24 26 24 21 23 23 22 20 14 16 17 18 18 18 17
34 34 35 34 31 29 25 21 23 28 31 33 36 35 32 23 22 24 28 28 30 29 28 24 29 28 28 31 32 31 28 27 26 22 21 22 22 20 18 17 19 20 20 19 18
36 36 36 35 31 29 26 26 28 29 31 33 36 36 33 34 29 30 33 32 33 33 32 30 22 29 29 30 32 33 32 27 26 26 24 24 23 22 21 18 19 21 20 20 21
38 38 37 35 29 30 27 30 29 27 27 29 27 29 35 33 35 34 36 35 29 36 33 32 29 26 30 30 30 32 32 29 26 26 26 29 25 26 24 21 21 22 22 21 22
39 39 37 33 32 29 32 32 29 25 23 16 21 22 28 37 22 38 37 41 35 32 36 36 33 29 30 29 29 28 27 32 30 29 27 30 26 25 27 27 24 23 23 22 23
41 40 37 32 32 33 34 31 26 25 27 20 20 24 27 35 35 29 38 42 38 33 34 36 29 31 27 29 28 26 24 26 29 29 32 32 28 27 26 23 26 25 25 24 22
40 36 33 31 33 36 32 27 26 29 17 15 20 21 27 30 37 32 41 43 42 40 39 35 38 31 30 29 30 27 27 22 25 28 29 30 31 27 26 27 26 26 27 25 23
37 32 27 29 33 32 27 26 29 27 16 23 26 30 31 30 34 37 38 40 47 42 33 33 35 41 32 36 31 32 31 24 25 24 23 28 32 30 30 23 26 27 27 26 24
35 26 23 31 32 28 21 22 22 19 24 26 29 29 29 31 27 38 40 40 43 47 43 36 40 32 40 34 35 30 34 30 23 23 20 23 27 25 26 33 27 24 29 28 25
31 28 23 33 30 23 17 19 17 18 24 25 27 22 18 16 26 30 37 37 39 47 44 37 28 40 34 37 38 35 31 31 27 21 20 18 17 22 23 20 32 31 27 30 26
29 26 25 31 25 21 18 16 20 22 22 23 28 29 23 22 24 27 31 23 25 33 47 44 34 29 38 43 38 38 33 35 28 26 18 15 14 18 23 22 26 28 34 28 26
28 23 26 26 20 18 19 18 17 18 18 19 24 29 29 24 26 24 17 21 25 27 31 42 34 33 42 38 37 37 37 35 29 29 24 14 5 5 11 16 22 25 26 31 28
28 23 20 23 18 19 19 20 14 15 13 14 18 22 27 27 23 20 22 25 23 25 24 32 36 33 32 36 39 42 41 35 34 26 27 22 12 6 9 9 20 22 23 25 26
26 19 22 18 19 21 21 19 14 9 11 13 13 18 21 28 27 25 22 23 25 26 28 30 35 39 32 36 35 40 40 40 35 31 26 27 21 12 8 11 15 16 18 21 21
23 20 19 19 20 20 18 17 14 11 11 13 10 13 18 22 26 19 22 22 24 26 26 29 34 37 37 25 26 38 42 42 42 35 33 23 25 18 15 12 14 16 15 16 18
24 21 20 21 19 18 16 15 14 14 14 14 11 13 16 21 27 26 25 22 23 22 24 27 31 34 37 35 28 30 34 43 42 39 35 31 24 25 18 17 14 14 16 17 17
26 22 19 18 19 16 15 16 16 15 11 9 12 15 18 18 23 30 30 32 30 28 27 27 27 30 35 37 30 35 37 34 37 39 36 34 30 23 19 17 17 16 17 20 21
Wind_Direction
323 322 321 318 316 314 312 309 306 303 301 298 292 285 281 274 268 251 240 230 218 209 201 196 197 199 203 208 214 221 224 226 171 107 140 152 125 117 127 141 151 153 150 154 158
321 320 319 317 315 312 309 306 302 299 295 292 289 284 279 277 267 253 240 230 217 206 204 198 196 199 204 211 210 215 214 197 124 144 142 146 117 144 147 149 141 133 140 154 160
321 319 317 315 313 310 308 304 299 296 292 286 282 280 276 276 270 256 240 222 215 207 206 203 202 203 211 214 212 216 208 228 169 115 161 156 136 140 146 168 156 152 156 162 165
321 318 316 313 311 309 307 303 299 293 287 282 277 272 269 260 255 248 232 216 215 209 208 204 205 206 212 213 214 227 208 234 182 170 172 162 151 146 156 152 164 162 166 167 172
321 319 316 313 310 307 305 301 298 292 286 278 270 264 260 249 247 252 233 219 212 208 209 206 207 207 212 214 215 222 237 222 221 209 200 193 176 169 153 146 150 166 173 176 179
319 317 315 313 310 307 304 299 296 292 285 275 263 255 253 253 251 241 233 217 211 208 210 208 210 209 217 221 219 222 230 230 221 216 212 209 195 199 180 169 159 160 176 181 186
318 316 313 311 308 306 301 297 293 288 283 273 258 248 251 247 244 241 229 220 215 209 210 211 211 212 217 227 225 228 227 225 224 221 219 214 209 208 186 182 178 178 177 186 191
317 315 312 310 307 305 299 295 289 284 280 269 252 247 253 251 243 237 227 219 216 212 214 212 213 217 218 227 226 222 229 224 217 216 215 215 217 212 200 196 194 191 190 188 195
316 314 311 309 306 302 296 291 284 280 272 258 251 249 256 246 238 230 225 217 213 213 215 213 213 218 217 224 224 219 222 220 220 214 215 216 229 198 201 202 205 204 199 197 195
318 315 313 310 306 301 295 286 277 271 263 257 256 250 250 246 236 225 221 217 210 209 211 213 213 216 218 216 220 217 217 221 220 205 214 211 221 199 205 207 212 207 202 202 201
319 317 314 311 306 303 298 286 275 264 257 254 247 247 254 239 236 222 213 212 210 210 210 209 211 216 215 218 222 226 221 222 214 208 210 222 215 224 213 218 214 207 207 206 206
321 318 315 311 305 302 298 291 280 272 268 259 253 250 246 242 233 222 211 211 210 210 209 208 219 217 219 217 220 223 228 222 222 218 216 218 226 229 223 218 218 209 209 210 206
322 319 317 312 304 299 289 294 285 278 264 261 249 243 237 233 234 223 213 213 212 211 211 214 219 218 216 218 217 223 223 224 225 222 222 228 234 229 224 218 218 215 213 213 209
322 319 316 313 300 301 290 291 285 276 267 259 243 243 231 228 235 230 217 213 214 216 215 221 220 211 217 219 218 221 220 226 226 226 226 221 236 228 229 222 216 216 213 213 211
322 320 315 310 302 301 296 290 280 265 264 238 233 236 230 220 235 221 215 214 219 217 215 218 219 215 216 217 216 223 220 220 227 232 236 233 233 233 221 223 217 217 214 215 211
325 322 318 311 304 299 296 287 268 253 249 242 242 233 224 225 232 215 212 216 219 219 220 223 218 220 218 218 217 217 220 224 222 228 234 230 232 231 228 223 214 216 216 214 214
327 324 321 316 311 305 295 278 257 245 243 250 250 246 231 224 223 220 210 211 215 217 219 218 223 218 219 216 213 210 211 212 220 223 233 227 231 231 229 228 225 221 215 214 213
331 328 325 326 320 311 293 271 253 248 258 263 258 256 246 235 220 218 213 215 217 217 219 217 218 218 211 215 209 211 211 215 216 223 231 227 230 231 231 234 227 218 216 212 211
335 334 333 336 333 322 298 272 264 255 260 261 263 251 239 227 226 217 220 220 217 218 219 216 224 213 218 214 213 209 215 215 227 222 232 226 227 235 229 226 224 219 213 212 208
335 331 327 336 333 330 303 276 277 268 263 255 249 246 252 237 222 227 217 223 221 218 222 227 225 220 210 213 217 220 212 214 223 236 221 231 230 219 214 226 215 217 216 215 213
329 327 329 332 330 330 319 299 291 281 267 254 247 244 241 242 245 229 225 215 221 223 217 221 230 226 212 210 210 210 214 215 222 224 228 231 239 227 214 215 217 216 213 212 211
331 327 331 336 328 332 328 312 289 282 272 259 244 238 234 238 235 230 234 214 222 223 220 213 218 223 212 210 214 213 214 210 218 217 224 234 223 203 190 219 209 211 210 212 213
332 325 330 338 339 332 331 320 296 290 281 261 247 235 236 232 223 226 227 224 221 217 212 210 214 216 217 207 210 215 211 215 215 221 216 219 207 187 199 209 201 202 205 205 206
333 328 332 330 335 331 333 324 308 300 283 277 253 236 238 230 226 225 227 225 218 219 221 215 217 216 213 210 206 212 213 214 215 217 218 214 215 188 177 181 190 193 196 199 205
333 334 332 330 333 332 326 319 309 305 295 282 248 243 233 224 232 218 225 232 220 213 216 214 217 218 222 218 215 213 216 216 217 218 218 211 211 201 187 174 170 181 186 194 204
332 329 329 324 331 324 323 321 314 314 304 285 266 266 244 232 228 234 230 226 212 218 215 220 221 220 223 222 218 224 221 216 217 219 220 222 220 209 199 203 207 211 215 219 222
337 324 325 325 330 328 321 323 320 310 303 293 275 273 251 239 233 230 226 227 225 226 221 221 216 215 216 219 221 224 219 220 220 217 219 219 221 223 218 220 222 225 226 227 230